[[{"header":{"parameterUnit":"m.s-1","parameterCategory":2,"la1":30.2991,"la2":30.254,"lo1":-89.0895,"lo2":-89.0444,"dy":0.0017,"dx":0.0017,"nx":28,"ny":28,"refTime":"2024-08-12T03:00:00:Z","depth":"0","parameterNumber":2,"parameterNumberName":"U-component_of_CURRENTS"},"data":[0,0,0,0,0,0,0,0,0,0,0,0,0,0,0,0,0,0,0,0,0,0,0,0,0,0,0,0,0,0,0,0,0,0,0,0,0,0,0,0,0,0,0,0,0,0,0,0,0,0,0,0,0,0,0,0,0,0,0.1916,0.1916,0,0.1909,0.1909,0.1909,0.1916,0.1917,0.1917,0.1918,0.1886,0.1884,0.1883,0,0,0,0,0,0,0,0,0,0,0,0,0,0.1905,0.1905,0.1916,0.1916,0.1916,0.1909,0.1909,0.1908,0.1916,0.1917,0.1917,0.1918,0.1886,0.1885,0.1883,0,0,0,0,0,0,0,0,0,0,0,0,0,0.1903,0.1905,0.1916,0.1921,0.1921,0.1909,0.1909,0.1908,0.1916,0.1917,0.1918,0.1918,0.1887,0.1885,0.1883,0.1855,0,0,0.1877,0.1876,0,0,0,0,0,0,0,0,0.1903,0.1903,0.192,0.1921,0.1921,0.1916,0.1893,0.189,0.1916,0.1915,0.1918,0.1919,0.1895,0.1892,0.1886,0.1853,0.1852,0.1876,0.1875,0.1874,0.1874,0,0,0,0,0,0,0,0.1903,0.1903,0.1911,0.192,0.1921,0.1913,0.1914,0.1893,0.1898,0.1916,0.1917,0.192,0.1895,0.1888,0.1885,0.1851,0.1876,0.1875,0.1873,0.1873,0.1869,0.187,0,0,0,0,0,0,0.191,0.1903,0.1911,0.1911,0.1917,0.1913,0.1914,0.1915,0.1899,0.1898,0.1919,0.192,0.1891,0.1888,0.1884,0.1908,0.1874,0.1872,0.1871,0.1868,0.1869,0.187,0,0,0,0,0,0,0.1909,0.191,0.1911,0.1909,0.1909,0.1913,0.1914,0.1915,0.1914,0.1903,0.1901,0.1919,0.1891,0.1887,0.1886,0.1905,0.1872,0.187,0.1867,0.1868,0.187,0.1918,0,0,0,0,0,0,0.1909,0.191,0.1908,0.1909,0.1909,0.1907,0.1914,0.1914,0.1915,0.1917,0.1902,0.1899,0.1892,0.1889,0.1884,0.1901,0.1868,0.1865,0.1867,0.1869,0.1915,0.1921,0.1927,0,0,0,0,0,0.1909,0.1899,0.1908,0.1908,0.1908,0.1907,0.1906,0.191,0.1915,0.1912,0.1916,0.19,0.1899,0.1888,0.1881,0.1899,0.1864,0.1867,0.1869,0.1913,0.192,0.1926,0,0,0,0,0,0,0.1883,0.1899,0.1909,0.1902,0.1909,0.191,0.1903,0.191,0.1909,0.1911,0.1904,0.1902,0.1914,0.1896,0.1884,0.1907,0.1882,0.1884,0.1918,0.1924,0.193,0.1922,0.1867,0,0,0,0,0,0.188,0.1878,0.1895,0.1886,0.1893,0.1899,0.1898,0.1905,0.1907,0.1907,0.1903,0.1904,0.1917,0.1912,0.1913,0.1908,0.1914,0.192,0.1926,0.1931,0.1922,0.1964,0.1973,0.1879,0.1879,0.1879,0,0,0.1863,0.1873,0.187,0.1881,0.1885,0.1889,0.1899,0.1899,0.1908,0.1902,0.1906,0.192,0.1922,0.1937,0.1939,0.1923,0.1963,0.1934,0.1938,0.1926,0.1967,0.1977,0.1985,0.188,0.188,0.188,0,0,0.1829,0.1844,0.1835,0.1848,0.1863,0.1873,0.1877,0.1888,0.1901,0.1907,0.1925,0.1952,0.194,0.1965,0.1973,0.2004,0.1997,0.2005,0.2018,0.206,0.2068,0.2075,0.2105,0.2115,0.2002,0.2002,0.2002,0,0.1804,0.1807,0.1829,0.1832,0.1845,0.1869,0.1871,0.1885,0.1895,0.1914,0.1912,0.1952,0.1957,0.2,0.2021,0.2017,0.2033,0.1992,0.2067,0.2074,0.2081,0.211,0.212,0.2004,0.2004,0.2004,0.2004,0,0.1775,0.1782,0.1778,0.1797,0.1813,0.1816,0.1854,0.1872,0.1892,0.1912,0.1958,0.198,0.2006,0.2024,0.2029,0.2085,0.2081,0.2076,0.205,0.2093,0.2122,0.2131,0.2008,0.2007,0.2006,0.2006,0,0,0.1698,0.1747,0.1744,0.1765,0.1802,0.1812,0.1842,0.188,0.1913,0.1934,0.1974,0.2018,0.204,0.2052,0.2077,0.2114,0.2186,0.2112,0.2113,0.2141,0.2274,0.2332,0.2347,0.2197,0.2198,0.22,0.228,0,0.1664,0.1674,0.171,0.1724,0.174,0.1794,0.1827,0.1871,0.1911,0.1956,0.2004,0.2046,0.2049,0.2079,0.2116,0.217,0.221,0.2163,0.2227,0.2229,0.2275,0.236,0.2444,0.2528,0.2289,0.229,0.2291,0,0.1623,0.1642,0.1654,0.1722,0.1735,0.1752,0.1829,0.1864,0.1941,0.1979,0.2028,0.2061,0.2127,0.2123,0.222,0.219,0.2232,0.2268,0.2272,0.231,0.2305,0.2444,0.2554,0.2487,0.2305,0.2304,0.2303,0,0.1569,0.1605,0.1619,0.1638,0.1711,0.1739,0.1784,0.1865,0.1913,0.1995,0.2037,0.2103,0.215,0.2206,0.2277,0.2253,0.2383,0.2359,0.2448,0.2451,0.2527,0.2535,0.2579,0.2429,0.2429,0.2429,0.2429,0,0.1526,0.1535,0.1598,0.1606,0.1642,0.1712,0.1765,0.1826,0.1918,0.1979,0.2044,0.2111,0.2175,0.2252,0.2298,0.2415,0.2402,0.2471,0.2489,0.2548,0.2557,0.2502,0.2392,0.2432,0.2431,0.2431,0.243,0,0.1463,0.15,0.1522,0.1592,0.1616,0.1644,0.1745,0.1797,0.189,0.1972,0.2001,0.2125,0.2244,0.2314,0.2423,0.2461,0.2499,0.2592,0.2654,0.268,0.2693,0.2581,0.2461,0.2388,0.2704,0.2706,0.2708,0,0.1429,0.1433,0.1494,0.1513,0.1542,0.1599,0.1651,0.1763,0.1827,0.1988,0.2031,0.2172,0.2279,0.2472,0.2601,0.2718,0.2574,0.2835,0.2809,0.2728,0.2617,0.2407,0.2337,0.2928,0.2931,0.2934,0.2936,0,0.1365,0.1388,0.1414,0.1454,0.1497,0.1556,0.1639,0.1689,0.1831,0.1923,0.2067,0.2166,0.2403,0.259,0.2766,0.2858,0.2716,0.2896,0.281,0.2798,0.2575,0.2504,0.2814,0.2962,0.2959,0.2957,0.2956,0.2955,0.1315,0.1317,0.1356,0.1399,0.1448,0.1515,0.1561,0.1672,0.1783,0.1939,0.2049,0.2229,0.2519,0.2814,0.2904,0.3097,0.2868,0.3073,0.2946,0.2742,0.266,0.3018,0.3184,0.3183,0.3182,0.3181,0.318,0,0.126,0.1276,0.1304,0.1358,0.1397,0.1449,0.1556,0.1615,0.1738,0.1911,0.2044,0.238,0.2648,0.2897,0.3199,0.3168,0.3027,0.3065,0.2804,0.2735,0.3112,0.3117,0.3281,0.3281,0.3281,0.3281,0.3281,0.3281,0.1228,0.1236,0.1263,0.1302,0.1341,0.14,0.1458,0.1562,0.1689,0.1916,0.2115,0.2269,0.2615,0.2923,0.3106,0.3097,0.2813,0.2719,0.2531,0.2843,0.2833,0.2824,0.2809,0.2905,0.2904,0.2184,0.2178,0.2174]},{"header":{"parameterUnit":"m.s-1","parameterCategory":2,"la1":30.2991,"la2":30.254,"lo1":-89.0895,"lo2":-89.0444,"dy":0.0017,"dx":0.0017,"nx":28,"ny":28,"refTime":"2024-08-12T03:00:00:Z","depth":"0","parameterNumber":3,"parameterNumberName":"V-component_of_CURRENTS"},"data":[0,0,0,0,0,0,0,0,0,0,0,0,0,0,0,0,0,0,0,0,0,0,0,0,0,0,0,0,0,0,0,0,0,0,0,0,0,0,0,0,0,0,0,0,0,0,0,0,0,0,0,0,0,0,0,0,0,0,-0.0794,-0.0795,0,-0.0842,-0.0842,-0.0843,-0.0921,-0.0922,-0.0923,-0.0924,-0.1016,-0.1018,-0.1019,0,0,0,0,0,0,0,0,0,0,0,0,0,-0.0805,-0.0805,-0.0794,-0.0795,-0.0795,-0.0841,-0.0842,-0.0843,-0.0921,-0.0922,-0.0924,-0.0925,-0.1016,-0.1017,-0.1019,0,0,0,0,0,0,0,0,0,0,0,0,0,-0.0825,-0.0805,-0.0794,-0.0836,-0.084,-0.0841,-0.0842,-0.0844,-0.0921,-0.0922,-0.0924,-0.0926,-0.1015,-0.1017,-0.1019,-0.1,0,0,-0.1026,-0.1027,0,0,0,0,0,0,0,0,-0.0823,-0.0825,-0.083,-0.0834,-0.0838,-0.0874,-0.088,-0.0897,-0.092,-0.0894,-0.0924,-0.0926,-0.0969,-0.0975,-0.0985,-0.1004,-0.1008,-0.1026,-0.1027,-0.1028,-0.1029,0,0,0,0,0,0,0,-0.0822,-0.0823,-0.0817,-0.083,-0.0835,-0.0864,-0.0869,-0.0884,-0.0926,-0.0897,-0.0901,-0.09,-0.0972,-0.0983,-0.0988,-0.1009,-0.1026,-0.1028,-0.1029,-0.103,-0.1049,-0.1048,0,0,0,0,0,0,-0.0805,-0.0821,-0.0815,-0.0818,-0.083,-0.0862,-0.0868,-0.0864,-0.0925,-0.0934,-0.0899,-0.0904,-0.0978,-0.0985,-0.0991,-0.0989,-0.1028,-0.103,-0.1032,-0.105,-0.1049,-0.1048,0,0,0,0,0,0,-0.0805,-0.0804,-0.0813,-0.0818,-0.0821,-0.086,-0.0855,-0.0864,-0.0875,-0.0925,-0.0937,-0.0901,-0.098,-0.0988,-0.1007,-0.0992,-0.1031,-0.1033,-0.1051,-0.105,-0.1048,-0.0972,0,0,0,0,0,0,-0.0805,-0.0803,-0.0799,-0.0817,-0.082,-0.0808,-0.0853,-0.0863,-0.087,-0.0877,-0.093,-0.0941,-0.0982,-0.1003,-0.1009,-0.0996,-0.1035,-0.1052,-0.105,-0.1049,-0.0975,-0.0968,-0.0962,0,0,0,0,0,-0.0805,-0.0795,-0.0799,-0.0798,-0.0812,-0.0807,-0.0811,-0.0848,-0.0868,-0.0866,-0.0906,-0.0939,-0.0999,-0.1004,-0.1011,-0.0998,-0.1052,-0.1051,-0.1049,-0.0978,-0.097,-0.0962,0,0,0,0,0,0,-0.0808,-0.0802,-0.0807,-0.0798,-0.0797,-0.0819,-0.0822,-0.0835,-0.0863,-0.0874,-0.0926,-0.0939,-0.0952,-0.098,-0.0985,-0.1,-0.1031,-0.1031,-0.0975,-0.0968,-0.0961,-0.0954,-0.1037,0,0,0,0,0,-0.08,-0.0785,-0.0785,-0.0776,-0.0774,-0.0792,-0.0796,-0.081,-0.0832,-0.0847,-0.088,-0.0917,-0.0947,-0.0961,-0.0991,-0.099,-0.1024,-0.0987,-0.0981,-0.0975,-0.0974,-0.1019,-0.1016,-0.1042,-0.1042,-0.1042,0,0,-0.0798,-0.0791,-0.0785,-0.0774,-0.0781,-0.0768,-0.08,-0.0794,-0.0789,-0.085,-0.0859,-0.0893,-0.0942,-0.0953,-0.0961,-0.0975,-0.098,-0.0972,-0.0967,-0.0969,-0.1017,-0.1014,-0.1012,-0.1041,-0.1041,-0.1042,0,0,-0.0779,-0.0778,-0.0757,-0.0751,-0.0742,-0.0747,-0.0738,-0.0746,-0.076,-0.0758,-0.081,-0.0833,-0.0866,-0.0903,-0.0926,-0.0895,-0.0945,-0.0902,-0.0861,-0.0904,-0.0903,-0.0902,-0.0921,-0.0922,-0.0897,-0.0897,-0.0897,0,-0.0777,-0.075,-0.0752,-0.073,-0.0723,-0.0732,-0.071,-0.0717,-0.073,-0.0741,-0.0752,-0.0813,-0.0844,-0.0876,-0.0865,-0.088,-0.0908,-0.0887,-0.0896,-0.0896,-0.0897,-0.0916,-0.0919,-0.0893,-0.0893,-0.0894,-0.0894,0,-0.0742,-0.0721,-0.0709,-0.0681,-0.0674,-0.0653,-0.0655,-0.0653,-0.0661,-0.0676,-0.07,-0.0741,-0.0785,-0.0788,-0.0815,-0.0832,-0.0851,-0.0884,-0.0916,-0.089,-0.0911,-0.0915,-0.0887,-0.0889,-0.089,-0.0891,0,0,-0.0728,-0.069,-0.0684,-0.0663,-0.0644,-0.0631,-0.062,-0.0617,-0.0623,-0.0632,-0.0648,-0.0678,-0.071,-0.0737,-0.0774,-0.0796,-0.0806,-0.083,-0.0834,-0.0846,-0.0887,-0.0879,-0.0883,-0.0847,-0.0847,-0.0848,-0.0893,0,-0.0696,-0.0646,-0.0637,-0.0592,-0.0567,-0.0573,-0.0566,-0.0569,-0.0584,-0.0602,-0.0641,-0.0671,-0.069,-0.0712,-0.0735,-0.08,-0.0817,-0.079,-0.0913,-0.0916,-0.0911,-0.0888,-0.081,-0.0843,-0.0897,-0.0898,-0.0899,0,-0.0658,-0.0628,-0.058,-0.0547,-0.0539,-0.052,-0.0518,-0.0511,-0.0546,-0.0564,-0.06,-0.0642,-0.0679,-0.0698,-0.0782,-0.0766,-0.0814,-0.0853,-0.0857,-0.0882,-0.0916,-0.0883,-0.0849,-0.0858,-0.0906,-0.0905,-0.0905,0,-0.0634,-0.0585,-0.0544,-0.0532,-0.0502,-0.0493,-0.0483,-0.0503,-0.0504,-0.0547,-0.056,-0.0623,-0.0654,-0.0724,-0.0793,-0.0798,-0.0882,-0.0909,-0.0942,-0.0942,-0.0916,-0.0913,-0.0906,-0.0964,-0.0964,-0.0964,-0.0964,0,-0.0595,-0.056,-0.0531,-0.0507,-0.0475,-0.0467,-0.0451,-0.046,-0.0479,-0.0483,-0.0542,-0.056,-0.0663,-0.0723,-0.079,-0.0871,-0.0887,-0.0928,-0.0956,-0.0884,-0.0877,-0.0919,-0.098,-0.0966,-0.0965,-0.0965,-0.0965,0,-0.0569,-0.0546,-0.05,-0.0469,-0.0459,-0.0439,-0.0418,-0.0415,-0.0435,-0.0444,-0.0455,-0.052,-0.0594,-0.0688,-0.0803,-0.0863,-0.0966,-0.0971,-0.0863,-0.0877,-0.0918,-0.0978,-0.1086,-0.111,-0.1017,-0.1017,-0.1018,0,-0.0548,-0.052,-0.0478,-0.046,-0.0443,-0.0415,-0.0401,-0.0397,-0.0395,-0.0414,-0.0419,-0.0484,-0.0513,-0.0665,-0.0784,-0.0898,-0.0963,-0.0916,-0.0912,-0.0899,-0.0988,-0.1046,-0.1062,-0.0839,-0.0837,-0.0836,-0.0835,0,-0.0514,-0.0503,-0.0474,-0.0444,-0.0418,-0.0386,-0.0363,-0.0348,-0.0348,-0.0346,-0.0348,-0.0361,-0.0483,-0.0545,-0.0701,-0.0796,-0.093,-0.0898,-0.0919,-0.0873,-0.0905,-0.0946,-0.0818,-0.0825,-0.0826,-0.0827,-0.0828,-0.0828,-0.0505,-0.0484,-0.0458,-0.0435,-0.0403,-0.0367,-0.0341,-0.0309,-0.0281,-0.0247,-0.0269,-0.0214,-0.0284,-0.0477,-0.0641,-0.0803,-0.0885,-0.0817,-0.0898,-0.096,-0.0966,-0.0804,-0.0828,-0.0829,-0.083,-0.083,-0.0831,0,-0.0516,-0.0489,-0.0453,-0.0422,-0.0397,-0.0379,-0.033,-0.0293,-0.0247,-0.0144,-0.0114,0.0021,-0.0111,-0.0274,-0.0497,-0.0701,-0.0822,-0.0817,-0.0855,-0.0879,-0.0738,-0.0706,-0.0662,-0.0662,-0.0662,-0.0662,-0.0662,-0.0662,-0.0517,-0.05,-0.048,-0.0441,-0.0414,-0.0369,-0.0339,-0.0251,-0.0154,0.0066,0.0244,0.0367,0.0451,-0.0109,-0.0496,-0.0669,-0.0826,-0.0905,-0.1011,-0.0864,-0.0869,-0.0873,-0.0851,-0.0839,-0.0839,-0.1065,-0.1067,-0.1069]}],[{"header":{"parameterUnit":"m.s-1","parameterCategory":2,"la1":30.2991,"la2":30.254,"lo1":-89.0895,"lo2":-89.0444,"dy":0.0017,"dx":0.0017,"nx":28,"ny":28,"refTime":"2024-08-12T03:00:00:Z","depth":"2","parameterNumber":2,"parameterNumberName":"U-component_of_CURRENTS"},"data":[0,0,0,0,0,0,0,0,0,0,0,0,0,0,0,0,0,0,0,0,0,0,0,0,0,0,0,0,0,0,0,0,0,0,0,0,0,0,0,0,0,0,0,0,0,0,0,0,0,0,0,0,0,0,0,0,0,0,0.2061,0.2062,0,0.2099,0.2099,0.2099,0.2078,0.2077,0.2076,0.2076,0.2127,0.2129,0.2131,0,0,0,0,0,0,0,0,0,0,0,0,0,0.1988,0.1989,0.2061,0.2062,0.2063,0.2098,0.2099,0.2099,0.2078,0.2077,0.2076,0.2075,0.2127,0.2129,0.2131,0,0,0,0,0,0,0,0,0,0,0,0,0,0.2019,0.1989,0.2061,0.2059,0.206,0.2098,0.2099,0.2099,0.2078,0.2077,0.2076,0.2075,0.2126,0.2129,0.2132,0.2172,0,0,0.2141,0.2142,0,0,0,0,0,0,0,0,0.2017,0.2021,0.2059,0.2059,0.206,0.2086,0.2092,0.2125,0.2078,0.2067,0.2076,0.2074,0.2118,0.2121,0.2126,0.2174,0.2177,0.2141,0.2143,0.2145,0.2145,0,0,0,0,0,0,0,0.2015,0.2019,0.2072,0.206,0.2061,0.2062,0.2065,0.2098,0.2096,0.2068,0.2068,0.2078,0.2117,0.2123,0.2127,0.2177,0.2141,0.2144,0.2146,0.2147,0.2288,0.2289,0,0,0,0,0,0,0.2018,0.2017,0.2071,0.2074,0.2039,0.2065,0.2068,0.2076,0.2095,0.2098,0.2079,0.2077,0.2118,0.2123,0.2129,0.2192,0.2144,0.2147,0.2149,0.2286,0.2288,0.229,0,0,0,0,0,0,0.2016,0.2022,0.207,0.2049,0.2056,0.2067,0.2076,0.2077,0.2078,0.2103,0.2105,0.208,0.2117,0.2124,0.217,0.2193,0.2149,0.2152,0.2284,0.2286,0.2289,0.231,0,0,0,0,0,0,0.2014,0.2021,0.203,0.2049,0.2057,0.208,0.2078,0.2079,0.2088,0.2086,0.2106,0.2109,0.2117,0.2165,0.2173,0.2197,0.2154,0.2281,0.2285,0.2288,0.2307,0.2313,0.2319,0,0,0,0,0,0.2011,0.2017,0.2031,0.2037,0.2068,0.208,0.2083,0.2086,0.2089,0.2084,0.2117,0.2108,0.2193,0.217,0.2178,0.2203,0.2279,0.2284,0.2288,0.2304,0.2312,0.2319,0,0,0,0,0,0,0.1994,0.2017,0.2031,0.2047,0.2061,0.2078,0.2079,0.209,0.2111,0.2111,0.2135,0.2142,0.2191,0.2201,0.2174,0.2257,0.2235,0.2241,0.2244,0.2252,0.2258,0.225,0.2156,0,0,0,0,0,0.1998,0.2003,0.2031,0.2043,0.2049,0.2069,0.2077,0.2079,0.2102,0.2109,0.2127,0.2163,0.2218,0.2235,0.2269,0.2315,0.2328,0.2338,0.2344,0.2348,0.235,0.2401,0.2411,0.2304,0.2304,0.2304,0,0,0.1995,0.2011,0.2015,0.204,0.205,0.2065,0.2069,0.2074,0.2098,0.2115,0.2146,0.2182,0.2237,0.2288,0.2311,0.2296,0.2387,0.2354,0.2357,0.2357,0.2407,0.2417,0.2426,0.2307,0.2307,0.2306,0,0,0.1983,0.2006,0.2002,0.2017,0.2036,0.2055,0.2058,0.2074,0.209,0.2136,0.2166,0.2217,0.2276,0.232,0.2358,0.242,0.2419,0.2431,0.245,0.25,0.2509,0.2517,0.2543,0.2553,0.243,0.243,0.243,0,0.1979,0.1988,0.2004,0.2008,0.2027,0.2052,0.2061,0.209,0.2121,0.2152,0.2144,0.2267,0.2297,0.2398,0.2417,0.2432,0.2452,0.2416,0.2506,0.2514,0.2522,0.2547,0.2558,0.2431,0.2431,0.2431,0.2431,0,0.1965,0.1979,0.1977,0.2,0.2021,0.2028,0.2075,0.2099,0.2131,0.2168,0.2254,0.2308,0.2382,0.2405,0.2433,0.2515,0.2508,0.2508,0.2481,0.2533,0.2557,0.2568,0.2434,0.2433,0.2433,0.2432,0,0,0.1939,0.1962,0.1963,0.1974,0.2018,0.2028,0.2085,0.2145,0.2184,0.2236,0.2299,0.2403,0.2429,0.2473,0.2515,0.2555,0.2623,0.2552,0.2554,0.2566,0.2722,0.2556,0.2552,0.2637,0.2639,0.2641,0.2714,0,0.1925,0.1926,0.1953,0.1973,0.1982,0.2036,0.2086,0.2147,0.2206,0.2266,0.2358,0.2425,0.2461,0.2491,0.2552,0.2609,0.2653,0.2602,0.268,0.2682,0.2518,0.2559,0.2284,0.2311,0.2725,0.2727,0.2728,0,0.1908,0.1913,0.1919,0.1964,0.1973,0.1991,0.2074,0.2121,0.2231,0.2279,0.2378,0.2439,0.2548,0.2543,0.2687,0.2654,0.2693,0.2723,0.2727,0.257,0.2536,0.2329,0.2315,0.2746,0.2744,0.2743,0.2742,0,0.1878,0.1898,0.1901,0.1913,0.1964,0.1984,0.202,0.2117,0.2162,0.2278,0.2315,0.2465,0.2519,0.262,0.2705,0.2702,0.2824,0.2827,0.272,0.2709,0.2486,0.245,0.2912,0.2912,0.2912,0.2912,0.2911,0,0.1863,0.1866,0.1876,0.1876,0.1885,0.1939,0.1971,0.2038,0.2128,0.2179,0.2308,0.2368,0.2536,0.263,0.2713,0.2743,0.2843,0.2724,0.2718,0.2484,0.2448,0.2834,0.2823,0.2914,0.2914,0.2913,0.2913,0,0.1831,0.1842,0.1835,0.1859,0.1865,0.1867,0.1916,0.1942,0.2036,0.2105,0.214,0.2306,0.2424,0.2566,0.2712,0.2711,0.2776,0.2757,0.2455,0.2409,0.263,0.262,0.2651,0.2646,0.2641,0.2638,0.2635,0,0.1816,0.1804,0.1797,0.1777,0.1777,0.1786,0.1795,0.1886,0.192,0.206,0.2087,0.2219,0.2252,0.2393,0.24,0.2466,0.2687,0.2304,0.2237,0.2612,0.2604,0.2602,0.2599,0.1967,0.1959,0.1952,0.1947,0,0.1767,0.1754,0.1732,0.1695,0.1678,0.1682,0.1703,0.1718,0.1831,0.1864,0.1922,0.1937,0.1995,0.1916,0.1985,0.2018,0.2267,0.2162,0.2656,0.2053,0.1967,0.1959,0.1979,0.1886,0.1892,0.1897,0.19,0.1902,0.1705,0.1667,0.1622,0.1588,0.1573,0.1563,0.1548,0.1565,0.1574,0.1582,0.1683,0.1615,0.1577,0.1484,0.1539,0.1654,0.1778,0.1805,0.1828,0.1857,0.1741,0.1649,0.1488,0.1492,0.1495,0.1498,0.15,0,0.16,0.1561,0.1522,0.1472,0.1434,0.1468,0.1472,0.1402,0.135,0.1356,0.1316,0.1088,0.0994,0.1137,0.1105,0.1113,0.1132,0.1224,0.124,0.1293,0.1342,0.1205,0.0809,0.0808,0.0808,0.0808,0,0,0.1529,0.145,0.1435,0.1342,0.132,0.1259,0.1249,0.1122,0.1082,0.0922,0.0871,0.0797,0.0891,0.074,0.0761,0.082,0.1074,0.081,0.1327,0.1384,0.1434,0.1601,0.1437,0,0,0,0,0]},{"header":{"parameterUnit":"m.s-1","parameterCategory":2,"la1":30.2991,"la2":30.254,"lo1":-89.0895,"lo2":-89.0444,"dy":0.0017,"dx":0.0017,"nx":28,"ny":28,"refTime":"2024-08-12T03:00:00:Z","depth":"2","parameterNumber":3,"parameterNumberName":"V-component_of_CURRENTS"},"data":[0,0,0,0,0,0,0,0,0,0,0,0,0,0,0,0,0,0,0,0,0,0,0,0,0,0,0,0,0,0,0,0,0,0,0,0,0,0,0,0,0,0,0,0,0,0,0,0,0,0,0,0,0,0,0,0,0,0,0.0723,0.0723,0,0.0654,0.0653,0.0652,0.0548,0.0547,0.0545,0.0544,0.038,0.0377,0.0374,0,0,0,0,0,0,0,0,0,0,0,0,0,0.0703,0.0704,0.0723,0.0723,0.0722,0.0654,0.0653,0.0652,0.0549,0.0547,0.0545,0.0543,0.0381,0.0377,0.0374,0,0,0,0,0,0,0,0,0,0,0,0,0,0.0677,0.0705,0.0724,0.0666,0.066,0.0655,0.0653,0.0651,0.0549,0.0547,0.0545,0.0543,0.0382,0.0378,0.0373,0.0389,0,0,0.0359,0.0357,0,0,0,0,0,0,0,0,0.0679,0.0678,0.0675,0.067,0.0664,0.0611,0.0586,0.056,0.0549,0.0587,0.0544,0.0541,0.0453,0.0442,0.043,0.0382,0.0375,0.0359,0.0356,0.0354,0.0353,0,0,0,0,0,0,0,0.0681,0.068,0.0692,0.0675,0.0668,0.0622,0.0616,0.058,0.0528,0.0583,0.0577,0.0576,0.0448,0.0434,0.0425,0.0372,0.0359,0.0355,0.0352,0.0351,0.0267,0.0268,0,0,0,0,0,0,0.0704,0.0682,0.0694,0.069,0.0671,0.0625,0.0618,0.0627,0.053,0.0515,0.0578,0.0572,0.0443,0.043,0.0419,0.04,0.0354,0.035,0.0348,0.0267,0.0267,0.0268,0,0,0,0,0,0,0.0704,0.0706,0.0697,0.0687,0.0683,0.0628,0.0639,0.0627,0.0603,0.0528,0.051,0.0566,0.0441,0.0425,0.0386,0.0393,0.0348,0.0344,0.0266,0.0267,0.0268,0.0382,0,0,0,0,0,0,0.0704,0.0707,0.0721,0.0689,0.0685,0.0704,0.0641,0.0627,0.0608,0.0599,0.0512,0.0495,0.0438,0.0393,0.0381,0.0386,0.0341,0.0266,0.0267,0.0267,0.0377,0.0386,0.0394,0,0,0,0,0,0.0703,0.0735,0.0723,0.0724,0.0707,0.0706,0.0699,0.0649,0.061,0.0615,0.055,0.0497,0.039,0.0391,0.0377,0.038,0.0265,0.0266,0.0267,0.0374,0.0384,0.0394,0,0,0,0,0,0,0.0734,0.0727,0.0712,0.074,0.073,0.069,0.0694,0.0658,0.0612,0.0591,0.0512,0.0492,0.0456,0.0408,0.0411,0.0357,0.0316,0.0314,0.0401,0.041,0.0419,0.0441,0.0337,0,0,0,0,0,0.0753,0.0772,0.0756,0.0779,0.078,0.0738,0.073,0.0693,0.0652,0.0628,0.0567,0.05,0.0454,0.0425,0.0375,0.0358,0.031,0.0346,0.0355,0.0362,0.037,0.0296,0.0299,0.0272,0.0272,0.0272,0,0,0.077,0.0771,0.078,0.0787,0.0773,0.0785,0.0726,0.0719,0.0717,0.0619,0.0593,0.0529,0.0456,0.0428,0.0407,0.0387,0.0352,0.0364,0.0371,0.0374,0.0298,0.03,0.0303,0.0272,0.0272,0.0272,0,0,0.0815,0.082,0.0847,0.0849,0.0838,0.0818,0.0821,0.078,0.0752,0.073,0.0652,0.06,0.0532,0.0481,0.0448,0.0476,0.0398,0.045,0.0511,0.044,0.0441,0.0442,0.0419,0.0417,0.0455,0.0455,0.0455,0,0.0832,0.0867,0.0855,0.0882,0.089,0.084,0.0865,0.0844,0.0789,0.0778,0.0734,0.0629,0.0562,0.0531,0.0529,0.0496,0.0452,0.0483,0.0451,0.0451,0.045,0.0425,0.0421,0.0461,0.046,0.0459,0.0459,0,0.0889,0.092,0.094,0.0959,0.097,0.0983,0.0962,0.0951,0.0908,0.0876,0.0832,0.0741,0.0676,0.0646,0.0592,0.0555,0.0527,0.0472,0.0431,0.046,0.0432,0.0426,0.0469,0.0467,0.0465,0.0464,0,0,0.0912,0.0968,0.0972,0.0999,0.1008,0.1021,0.1038,0.104,0.1046,0.098,0.0979,0.0885,0.082,0.0777,0.0696,0.0632,0.059,0.0551,0.0545,0.054,0.046,0.0454,0.0447,0.0517,0.0515,0.0514,0.0457,0,0.0952,0.1019,0.1037,0.1098,0.113,0.1118,0.1145,0.1137,0.1111,0.1098,0.1009,0.0965,0.0877,0.0831,0.076,0.0625,0.0572,0.0613,0.0423,0.0419,0.0418,0.0438,0.0378,0.0321,0.045,0.0449,0.0448,0,0.099,0.1034,0.1099,0.117,0.1184,0.1209,0.1241,0.1258,0.1241,0.1218,0.1167,0.1089,0.1002,0.0907,0.0724,0.0748,0.0616,0.0515,0.0508,0.0456,0.04,0.0304,0.0304,0.0437,0.0438,0.0438,0.0439,0,0.0993,0.1077,0.113,0.1151,0.1218,0.1243,0.127,0.1281,0.1299,0.1279,0.1272,0.1175,0.1099,0.0938,0.0738,0.0713,0.0539,0.0476,0.0363,0.0363,0.0252,0.0244,0.0342,0.0342,0.0343,0.0343,0.0343,0,0.1022,0.1066,0.1133,0.1161,0.1225,0.1265,0.1319,0.1335,0.1358,0.138,0.1315,0.1298,0.1088,0.0967,0.0786,0.0577,0.0574,0.0386,0.034,0.0295,0.0292,0.0332,0.0332,0.0341,0.0341,0.0341,0.0342,0,0.101,0.1054,0.112,0.1199,0.1224,0.1263,0.1345,0.1381,0.1404,0.1427,0.1417,0.1364,0.1219,0.1035,0.0784,0.0632,0.0438,0.036,0.0355,0.031,0.0304,0.031,0.0234,0.0233,0.0233,0.0232,0.0232,0,0.101,0.104,0.1129,0.1159,0.1191,0.126,0.1305,0.1376,0.1422,0.1464,0.1472,0.1377,0.1298,0.0999,0.0714,0.0443,0.0436,0.0239,0.0172,0.0326,0.0289,0.0296,0.0303,0.0081,0.0079,0.0078,0.0077,0,0.1003,0.1025,0.1072,0.1135,0.1186,0.1265,0.134,0.1396,0.1477,0.1514,0.1539,0.1487,0.1212,0.0903,0.0572,0.0401,0.0285,0.0204,0.0331,0.0132,0.0179,0.0144,0.0156,0.0064,0.0066,0.0067,0.0067,0.0068,0.0976,0.0999,0.1047,0.11,0.1163,0.1246,0.1323,0.1416,0.1506,0.1538,0.1519,0.138,0.1025,0.0527,0.0321,0.0162,0.0179,0.0061,0.0065,0.007,0.0077,0.0121,-0.0,0.0001,0.0001,0.0002,0.0002,0,0.0934,0.0957,0.1011,0.1081,0.1141,0.1183,0.1326,0.1409,0.1519,0.1462,0.1436,0.1001,0.0665,0.0404,0.0112,-0.0078,-0.0087,-0.0093,-0.0103,-0.009,-0.008,-0.008,-0.0199,-0.02,-0.02,-0.0201,0,0,0.0909,0.0928,0.0959,0.1026,0.1077,0.1185,0.1271,0.1401,0.1421,0.1358,0.1202,0.089,0.0573,0.025,0.0028,-0.0049,-0.0009,-0.0058,0.0113,0.0139,0.0152,0.0007,0.0019,0,0,0,0,0]}],[{"header":{"parameterUnit":"m.s-1","parameterCategory":2,"la1":30.2991,"la2":30.254,"lo1":-89.0895,"lo2":-89.0444,"dy":0.0017,"dx":0.0017,"nx":28,"ny":28,"refTime":"2024-08-12T03:00:00:Z","depth":"4","parameterNumber":2,"parameterNumberName":"U-component_of_CURRENTS"},"data":[0,0,0,0,0,0,0,0,0,0,0,0,0,0,0,0,0,0,0,0,0,0,0,0,0,0,0,0,0,0,0,0,0,0,0,0,0,0,0,0,0,0,0,0,0,0,0,0,0,0,0,0,0,0,0,0,0,0,0.0424,0.0425,0,0.0513,0.0514,0.0515,0.0626,0.0628,0.063,0.0632,0.0722,0.0722,0.0723,0,0,0,0,0,0,0,0,0,0,0,0,0,0.0289,0.0291,0.0424,0.0426,0.0427,0.0513,0.0514,0.0515,0.0626,0.0628,0.063,0.0633,0.0721,0.0722,0.0723,0,0,0,0,0,0,0,0,0,0,0,0,0,0.0359,0.0292,0.0424,0.0493,0.05,0.0513,0.0514,0.0516,0.0625,0.0628,0.0631,0.0634,0.0721,0.0722,0.0723,0.0673,0,0,0.0726,0.0726,0,0,0,0,0,0,0,0,0.0355,0.0364,0.0482,0.0488,0.0496,0.0563,0.05,0.0569,0.0625,0.0577,0.0632,0.0635,0.0667,0.0673,0.0682,0.0677,0.0681,0.0726,0.0727,0.0727,0.0727,0,0,0,0,0,0,0,0.035,0.036,0.0458,0.0483,0.0492,0.0499,0.0512,0.0513,0.0604,0.0581,0.059,0.06,0.0671,0.068,0.0685,0.0682,0.0726,0.0727,0.0728,0.0728,0.0731,0.073,0,0,0,0,0,0,0.0342,0.0356,0.0456,0.0461,0.0432,0.0499,0.0514,0.0538,0.0605,0.0618,0.0598,0.0605,0.0677,0.0683,0.0688,0.0728,0.0727,0.0728,0.0729,0.0731,0.0731,0.073,0,0,0,0,0,0,0.0339,0.035,0.0452,0.041,0.0424,0.0499,0.0524,0.0538,0.0607,0.0617,0.0631,0.066,0.068,0.0687,0.073,0.0729,0.0729,0.0729,0.0732,0.0731,0.073,0.0745,0,0,0,0,0,0,0.0334,0.0349,0.038,0.041,0.0427,0.0497,0.0522,0.0538,0.0606,0.0618,0.0673,0.0681,0.0683,0.0728,0.073,0.073,0.073,0.0733,0.0732,0.0731,0.0746,0.0745,0.0745,0,0,0,0,0,0.0329,0.0356,0.0381,0.0394,0.0462,0.0498,0.0508,0.0568,0.0607,0.064,0.0674,0.0683,0.0723,0.0729,0.0732,0.0732,0.0733,0.0732,0.0731,0.0746,0.0745,0.0745,0,0,0,0,0,0,0.0321,0.0371,0.0399,0.0444,0.0486,0.0519,0.0556,0.0593,0.0646,0.0671,0.0687,0.0696,0.0727,0.0725,0.0732,0.0726,0.0724,0.0723,0.0734,0.0734,0.0734,0.0756,0.0731,0,0,0,0,0,0.0328,0.0365,0.0409,0.045,0.0474,0.0524,0.0555,0.0595,0.0634,0.0665,0.0704,0.0721,0.071,0.0727,0.0728,0.0734,0.0712,0.073,0.073,0.073,0.0747,0.0688,0.0684,0.0726,0.0726,0.0726,0,0,0.0334,0.0369,0.0391,0.045,0.0489,0.0521,0.0552,0.0611,0.0639,0.0659,0.0729,0.0733,0.0713,0.0717,0.0729,0.0727,0.0705,0.0728,0.0728,0.0746,0.0686,0.0682,0.0678,0.0726,0.0726,0.0726,0,0,0.035,0.04,0.0434,0.0469,0.0534,0.0552,0.0581,0.0644,0.0684,0.0734,0.0735,0.0745,0.0773,0.0739,0.0722,0.0718,0.0706,0.0723,0.0742,0.0684,0.068,0.0677,0.0643,0.0636,0.0721,0.0721,0.0721,0,0.0364,0.0411,0.045,0.0489,0.0519,0.0571,0.0608,0.0635,0.0709,0.0721,0.077,0.0769,0.0771,0.0715,0.0729,0.0717,0.07,0.0746,0.0684,0.068,0.0676,0.0642,0.0635,0.0722,0.0722,0.0722,0.0722,0,0.0392,0.0444,0.0468,0.0529,0.056,0.0605,0.0638,0.0683,0.0739,0.0757,0.0772,0.077,0.0773,0.0755,0.0756,0.0712,0.0714,0.0691,0.0688,0.0673,0.0638,0.063,0.0723,0.0722,0.0722,0.0722,0,0,0.0397,0.0475,0.0492,0.0525,0.0591,0.0615,0.0648,0.0677,0.0691,0.0753,0.0758,0.0752,0.0777,0.0759,0.074,0.0699,0.0664,0.0708,0.0705,0.0681,0.0563,0.0565,0.0556,0.0637,0.0635,0.0634,0.055,0,0.0423,0.0492,0.052,0.0579,0.0617,0.0652,0.0667,0.0693,0.0723,0.0738,0.072,0.0731,0.0763,0.0776,0.0741,0.0677,0.0645,0.0691,0.0577,0.0574,0.0581,0.0547,0.063,0.0543,0.0542,0.054,0.0539,0,0.0449,0.0492,0.0561,0.0605,0.0624,0.0664,0.0692,0.0712,0.0709,0.0734,0.074,0.0742,0.071,0.0738,0.0647,0.0684,0.0652,0.0599,0.0594,0.059,0.0561,0.056,0.0524,0.0525,0.0526,0.0527,0.0528,0,0.0439,0.0516,0.0573,0.0598,0.0653,0.0689,0.0719,0.0731,0.0724,0.0746,0.0736,0.0717,0.0701,0.0658,0.0599,0.0637,0.0469,0.049,0.0451,0.0451,0.047,0.0475,0.0424,0.0424,0.0425,0.0425,0.0425,0,0.0448,0.0495,0.0588,0.0621,0.067,0.0711,0.074,0.0764,0.0755,0.0693,0.0754,0.0677,0.0686,0.0594,0.0567,0.0476,0.0445,0.0458,0.0424,0.0478,0.0485,0.0464,0.047,0.0422,0.0422,0.0423,0.0423,0,0.0433,0.0497,0.0563,0.0647,0.0678,0.0724,0.076,0.0742,0.0767,0.0684,0.0692,0.0645,0.056,0.0524,0.0415,0.0419,0.0332,0.0301,0.0358,0.0328,0.0376,0.0383,0.0295,0.0294,0.0293,0.0293,0.0292,0,0.0433,0.0474,0.0585,0.0615,0.0671,0.0732,0.0737,0.0766,0.07,0.0608,0.0519,0.0473,0.0434,0.0302,0.028,0.0246,0.0246,0.0235,0.0345,0.0384,0.036,0.0369,0.0377,0.0291,0.0291,0.0291,0.0291,0,0.0418,0.0479,0.0522,0.0592,0.0635,0.0643,0.0641,0.0592,0.0539,0.0543,0.0399,0.0384,0.0276,0.0261,0.0244,0.0198,0.027,0.0229,0.0233,0.0337,0.0379,0.0358,0.0366,0.0289,0.0289,0.0289,0.0289,0,0.0411,0.0431,0.0493,0.0528,0.0577,0.0542,0.0559,0.0477,0.0443,0.0343,0.0261,0.0224,0.0209,0.0223,0.0151,0.0176,0.0223,0.027,0.0273,0.0275,0.0314,0.0368,0.0241,0,0,0,0,0,0.0396,0.0381,0.0406,0.0435,0.0474,0.049,0.0457,0.0441,0.0366,0.0272,0.0288,0.0197,0.0191,0.0162,0.0194,0.0145,0.0211,0.0182,0.0263,0.0277,0.0279,0.0331,0,0,0,0,0,0,0.0372,0.0405,0.0374,0.034,0.0338,0.0348,0.0335,0.029,0.024,0.0197,0.0197,0.0213,0.0204,0.0174,0.0192,0.0191,0.0252,0.018,0.0182,0.0275,0.0277,0.0279,0.0334,0,0,0,0,0]},{"header":{"parameterUnit":"m.s-1","parameterCategory":2,"la1":30.2991,"la2":30.254,"lo1":-89.0895,"lo2":-89.0444,"dy":0.0017,"dx":0.0017,"nx":28,"ny":28,"refTime":"2024-08-12T03:00:00:Z","depth":"4","parameterNumber":3,"parameterNumberName":"V-component_of_CURRENTS"},"data":[0,0,0,0,0,0,0,0,0,0,0,0,0,0,0,0,0,0,0,0,0,0,0,0,0,0,0,0,0,0,0,0,0,0,0,0,0,0,0,0,0,0,0,0,0,0,0,0,0,0,0,0,0,0,0,0,0,0,0.001,0.0009,0,-0.0088,-0.0089,-0.009,-0.0102,-0.0101,-0.01,-0.0099,-0.0181,-0.0184,-0.0187,0,0,0,0,0,0,0,0,0,0,0,0,0,0.0146,0.0143,0.001,0.0009,0.0008,-0.0088,-0.0089,-0.0091,-0.0102,-0.0101,-0.01,-0.0098,-0.018,-0.0184,-0.0187,0,0,0,0,0,0,0,0,0,0,0,0,0,0.0071,0.0143,0.001,-0.0009,-0.0012,-0.0087,-0.0089,-0.0091,-0.0102,-0.0101,-0.0099,-0.0098,-0.0179,-0.0183,-0.0188,-0.0248,0,0,-0.0202,-0.0204,0,0,0,0,0,0,0,0,0.0075,0.0066,-0.0005,-0.0008,-0.0011,-0.008,-0.0071,-0.0142,-0.0103,-0.0069,-0.0099,-0.0097,-0.0147,-0.0154,-0.0177,-0.0252,-0.0255,-0.0203,-0.0206,-0.0208,-0.0209,0,0,0,0,0,0,0,0.008,0.0069,-0.0029,-0.0006,-0.001,-0.0027,-0.0036,-0.0085,-0.0115,-0.0072,-0.0072,-0.0083,-0.0148,-0.0172,-0.0179,-0.0256,-0.0203,-0.0207,-0.021,-0.0212,-0.0362,-0.0363,0,0,0,0,0,0,0.0094,0.0074,-0.0026,-0.0032,0.0038,-0.003,-0.004,-0.006,-0.0115,-0.0122,-0.0084,-0.0083,-0.0165,-0.0173,-0.0182,-0.0241,-0.0208,-0.0212,-0.0215,-0.036,-0.0362,-0.0363,0,0,0,0,0,0,0.0097,0.0085,-0.0022,0.002,0.0006,-0.0034,-0.0057,-0.0063,-0.0087,-0.0125,-0.0131,-0.0101,-0.0164,-0.0175,-0.0231,-0.0244,-0.0214,-0.0218,-0.0359,-0.0361,-0.0362,-0.0368,0,0,0,0,0,0,0.0101,0.0086,0.0075,0.0021,0.0004,-0.0074,-0.0058,-0.0066,-0.0096,-0.0095,-0.0142,-0.0148,-0.0164,-0.0224,-0.0235,-0.025,-0.0222,-0.0358,-0.036,-0.0362,-0.0366,-0.037,-0.0373,0,0,0,0,0,0.0106,0.008,0.0074,0.0062,-0.0011,-0.0075,-0.0087,-0.0109,-0.0098,-0.0122,-0.0148,-0.0146,-0.0245,-0.0229,-0.0243,-0.0259,-0.0357,-0.0359,-0.0362,-0.0365,-0.0369,-0.0373,0,0,0,0,0,0,0.0133,0.0074,0.0068,0.0027,-0.0021,-0.0077,-0.01,-0.0115,-0.0157,-0.0151,-0.0175,-0.0185,-0.0237,-0.0253,-0.0235,-0.0308,-0.0296,-0.0301,-0.0294,-0.0298,-0.0301,-0.0289,-0.0226,0,0,0,0,0,0.0133,0.0099,0.0043,0.001,-0.0013,-0.0057,-0.0084,-0.0103,-0.0145,-0.0161,-0.019,-0.0221,-0.0262,-0.0282,-0.0322,-0.0373,-0.0369,-0.0388,-0.0391,-0.0393,-0.0393,-0.0412,-0.0416,-0.0372,-0.0372,-0.0372,0,0,0.0134,0.0099,0.008,0.0013,-0.0021,-0.0067,-0.007,-0.0117,-0.0149,-0.0165,-0.0214,-0.0242,-0.028,-0.033,-0.0353,-0.0342,-0.0401,-0.0397,-0.0398,-0.0397,-0.0415,-0.0419,-0.0423,-0.0373,-0.0373,-0.0373,0,0,0.0115,0.0088,0.0052,0.001,-0.0046,-0.0077,-0.0091,-0.015,-0.0168,-0.0224,-0.0237,-0.0275,-0.0337,-0.0365,-0.0386,-0.0436,-0.0422,-0.0442,-0.0446,-0.0465,-0.0468,-0.0471,-0.0454,-0.0455,-0.0438,-0.0438,-0.0438,0,0.0124,0.007,0.0031,-0.0014,-0.0044,-0.008,-0.0123,-0.0159,-0.0225,-0.0244,-0.0236,-0.0326,-0.0354,-0.0415,-0.0421,-0.0443,-0.0435,-0.0427,-0.0467,-0.047,-0.0473,-0.0455,-0.0456,-0.0439,-0.0439,-0.0439,-0.0438,0,0.0072,0.0035,0.0009,-0.0054,-0.0095,-0.014,-0.0189,-0.0223,-0.0238,-0.0269,-0.0327,-0.0369,-0.0409,-0.0429,-0.0439,-0.0479,-0.046,-0.0471,-0.0452,-0.0477,-0.0457,-0.0458,-0.0439,-0.0439,-0.0439,-0.0439,0,0,0.0084,-0.0007,-0.0011,-0.0043,-0.0117,-0.0157,-0.0205,-0.0263,-0.0285,-0.0336,-0.037,-0.0433,-0.0435,-0.0459,-0.048,-0.0499,-0.0504,-0.0485,-0.0486,-0.0457,-0.0513,-0.0484,-0.0483,-0.0517,-0.0518,-0.0518,-0.0483,0,0.0061,-0.0014,-0.0056,-0.012,-0.0164,-0.0205,-0.0245,-0.0296,-0.0328,-0.037,-0.041,-0.0446,-0.0453,-0.0459,-0.0485,-0.0512,-0.0511,-0.0511,-0.0503,-0.0502,-0.0465,-0.0485,-0.0521,-0.0484,-0.0484,-0.0484,-0.0484,0,0.0026,-0.002,-0.0075,-0.015,-0.017,-0.0191,-0.0247,-0.0293,-0.0353,-0.0375,-0.0415,-0.0446,-0.0488,-0.048,-0.0521,-0.0517,-0.0505,-0.0518,-0.0517,-0.0491,-0.0477,-0.046,-0.0487,-0.0486,-0.0486,-0.0486,-0.0486,0,0.0049,-0.0035,-0.0069,-0.0097,-0.018,-0.0182,-0.0211,-0.0271,-0.0311,-0.0356,-0.0382,-0.0442,-0.0458,-0.0482,-0.0489,-0.0503,-0.0519,-0.0542,-0.0502,-0.0498,-0.053,-0.0527,-0.055,-0.055,-0.055,-0.055,-0.055,0,0.0029,-0.0004,-0.0042,-0.0063,-0.0084,-0.0143,-0.0164,-0.0202,-0.0262,-0.0312,-0.0358,-0.0394,-0.0457,-0.0479,-0.0486,-0.0487,-0.0505,-0.0502,-0.0496,-0.053,-0.0529,-0.0529,-0.0527,-0.0549,-0.0549,-0.055,-0.055,0,0.0039,0.0009,-0.0031,-0.0074,-0.007,-0.0077,-0.012,-0.0162,-0.0197,-0.026,-0.027,-0.0352,-0.0382,-0.0426,-0.0459,-0.047,-0.048,-0.046,-0.0461,-0.0455,-0.0447,-0.0446,-0.0443,-0.0442,-0.0441,-0.044,-0.044,0,0.0022,0.0011,-0.0008,-0.0004,-0.0005,-0.0015,-0.004,-0.0103,-0.0159,-0.0232,-0.0274,-0.0309,-0.0357,-0.0375,-0.0414,-0.0425,-0.0424,-0.0414,-0.0474,-0.0446,-0.0441,-0.0441,-0.0441,-0.0438,-0.0438,-0.0438,-0.0437,0,-0.0003,0.0017,-0.001,0.0021,0.0023,-0.0032,-0.006,-0.0083,-0.0176,-0.021,-0.0268,-0.0295,-0.0327,-0.0367,-0.0357,-0.0369,-0.0432,-0.0405,-0.0409,-0.0464,-0.044,-0.0436,-0.0437,-0.0434,-0.0435,-0.0435,-0.0435,0,-0.0001,-0.0013,-0.0004,0.0016,0.0027,-0.0024,-0.006,-0.0123,-0.0177,-0.0254,-0.0252,-0.0288,-0.0316,-0.0333,-0.0327,-0.0339,-0.0367,-0.0381,-0.0386,-0.039,-0.0395,-0.0358,-0.0321,0,0,0,0,0,0.0011,-0.0005,-0.0013,-0.0016,0.0001,0.0005,-0.0075,-0.0131,-0.018,-0.0222,-0.0243,-0.0267,-0.0289,-0.0299,-0.0308,-0.0324,-0.0369,-0.0335,-0.0388,-0.0416,-0.042,-0.0434,0,0,0,0,0,0,-0.0002,0.0008,-0.0027,-0.002,0.0005,-0.0037,-0.0068,-0.0138,-0.0172,-0.0196,-0.0209,-0.0234,-0.0257,-0.0254,-0.0283,-0.0291,-0.0323,-0.0351,-0.0351,-0.0414,-0.0417,-0.042,-0.0437,0,0,0,0,0]}]]